Theta_e
320 322 321 320 318 321 323 322 324 323 324 337 336 340 352 351 352 352 351 349 349 348 346 347 347 348 348 348 349 348 348 347 346 346 346 347 347 349 351 349 349 347 347 349
317 323 322 320 319 320 320 321 321 320 322 333 335 338 352 351 352 352 352 351 349 348 346 345 346 348 347 347 348 348 348 348 348 347 346 348 348 348 351 349 348 350 349 348
322 320 321 321 320 321 319 320 320 322 328 339 340 341 353 351 349 349 350 350 349 348 348 344 346 347 348 347 347 348 347 347 348 347 347 348 349 350 351 349 348 350 350 349
318 319 323 320 321 320 318 319 320 321 322 323 340 347 345 352 352 349 347 350 349 348 346 344 345 346 347 348 347 347 347 348 348 348 348 348 349 350 351 350 349 348 350 350
318 317 319 323 323 320 321 320 320 321 322 323 328 341 338 348 354 351 348 346 346 346 346 343 343 345 346 347 347 347 347 348 348 348 348 348 349 350 350 347 346 348 350 351
317 316 318 317 319 320 320 319 316 317 319 324 322 329 330 345 351 351 348 348 347 345 344 343 341 343 345 347 347 346 347 348 348 348 349 349 348 349 348 348 347 348 349 348
318 318 318 317 318 318 319 318 318 319 320 324 319 331 327 337 341 345 347 346 345 346 345 344 343 341 344 346 347 346 347 348 348 349 348 349 349 349 348 349 348 347 348 349
318 319 318 317 317 317 318 317 317 320 318 323 320 325 326 329 337 339 340 341 341 342 345 345 344 342 341 345 347 346 347 347 348 348 348 349 349 349 349 350 350 348 346 347
317 319 320 318 319 318 316 318 315 314 317 316 319 321 326 328 329 336 338 338 338 338 341 343 343 342 341 343 346 346 347 347 347 349 349 349 350 350 349 350 350 350 346 348
319 321 319 319 319 318 316 316 319 312 320 320 317 321 324 330 331 331 333 338 338 337 337 341 342 341 341 341 344 346 346 347 347 349 350 350 350 350 350 350 350 350 349 346
314 317 320 318 320 321 316 315 315 317 313 318 317 319 319 327 328 327 329 335 338 337 337 338 340 341 341 340 342 345 346 347 347 349 350 351 350 350 350 350 350 350 350 349
321 311 318 319 319 321 321 320 312 319 316 313 314 318 318 320 325 329 330 331 335 338 337 337 338 339 340 340 341 343 345 347 348 348 350 351 351 351 350 350 350 350 350 350
319 316 315 317 318 318 319 318 315 313 312 321 317 319 318 317 320 321 327 328 332 335 338 338 337 338 338 339 340 342 344 346 348 348 349 351 351 351 351 350 350 350 350 350
314 314 315 320 320 317 316 320 318 318 319 321 321 318 321 320 318 321 325 329 329 333 336 338 338 337 337 338 340 342 344 346 347 348 349 350 351 351 351 351 351 351 351 351
311 316 317 317 318 319 319 320 320 320 319 320 321 319 318 319 320 321 321 329 334 335 336 336 338 337 336 337 339 342 344 346 348 349 349 350 350 350 350 350 351 352 352 351
306 314 316 318 319 319 320 320 320 320 319 320 319 319 317 318 317 320 322 326 332 335 336 336 337 337 336 336 339 342 344 347 348 349 349 350 351 351 350 350 350 350 351 352
308 312 317 319 318 319 321 320 320 319 318 320 320 320 318 317 317 318 320 320 326 332 335 335 335 336 337 336 338 342 343 347 348 350 350 350 351 351 351 351 350 349 350 351
308 312 314 318 318 323 318 319 321 320 320 318 318 320 320 320 320 319 318 321 319 324 332 334 333 334 335 337 337 340 343 346 349 350 350 350 351 351 352 352 352 351 350 349
308 309 313 320 319 318 319 332 336 333 323 320 319 319 319 320 319 319 317 317 319 320 326 332 333 333 334 335 339 340 342 344 349 351 351 351 352 352 353 354 354 353 353 352
309 309 311 316 322 323 324 333 333 334 332 330 331 323 321 318 319 322 319 320 320 322 324 327 330 331 331 332 334 339 343 344 347 351 352 353 353 354 354 354 355 355 355 355
309 311 312 314 321 321 325 333 332 331 330 332 333 332 331 319 322 322 320 319 321 322 323 324 326 333 334 334 334 340 343 345 346 348 352 354 355 355 355 355 355 356 356 357
313 314 313 313 321 323 329 332 336 330 331 333 335 335 333 333 320 320 323 323 324 323 323 324 328 329 335 337 340 342 344 343 346 347 351 353 355 356 357 357 357 358 358 358
318 318 320 315 317 320 329 330 329 328 332 332 333 334 341 343 323 324 332 337 339 346 346 328 321 338 343 341 340 339 341 343 346 347 349 353 355 356 357 358 358 359 359 359
313 314 321 321 322 329 331 329 328 329 331 331 332 341 345 335 341 348 350 352 355 354 354 353 353 352 351 357 350 346 346 348 345 343 347 348 350 354 357 358 358 359 360 360
311 311 314 319 317 326 331 329 329 330 331 331 333 339 349 351 353 353 352 352 351 351 350 351 352 352 351 353 356 360 358 352 349 345 343 345 348 349 348 352 357 358 354 360
310 311 313 314 317 319 328 327 328 330 330 331 333 342 341 345 347 348 348 346 346 346 348 348 349 350 350 350 353 357 360 356 354 352 350 344 339 338 341 340 333 340 340 336
Wind_Speed
6 5 11 13 8 4 6 4 6 4 3 5 9 5 9 17 16 17 18 18 18 21 21 25 27 29 29 31 34 36 36 35 34 35 33 31 29 25 22 19 14 15 15 19
5 19 12 9 8 8 6 3 5 5 7 3 5 9 8 17 22 22 20 20 21 16 15 21 26 28 29 36 40 40 41 40 39 39 38 32 32 30 28 24 20 17 17 17
18 6 12 10 6 12 6 12 5 5 6 2 5 4 8 10 5 11 15 17 16 18 18 17 24 31 32 33 37 42 46 44 43 41 34 31 28 29 29 28 25 21 18 17
6 7 20 10 12 11 9 7 6 8 1 4 5 5 5 13 19 17 15 19 20 19 17 16 20 29 35 37 38 39 40 41 44 42 35 35 29 26 31 34 31 25 23 21
11 14 13 19 15 10 8 7 9 6 5 1 3 1 6 11 13 19 19 20 21 22 21 20 21 34 39 39 39 42 42 42 42 44 41 40 31 35 35 32 27 27 26 23
8 4 12 10 8 12 9 6 6 5 4 7 10 8 5 8 20 20 20 22 22 22 22 22 29 35 32 33 33 34 37 43 43 43 45 40 36 34 35 29 26 27 28 26
5 11 4 6 8 5 8 6 1 1 2 11 10 7 15 11 18 24 26 27 24 24 24 23 22 21 30 32 35 36 38 39 43 45 44 43 43 41 40 37 30 28 29 28
8 6 16 6 10 11 9 10 6 7 5 11 6 10 8 13 12 18 21 24 21 21 22 24 25 28 31 35 36 37 38 38 40 44 45 46 44 42 43 40 36 32 32 30
8 9 4 10 6 16 6 9 10 5 2 2 5 6 6 5 12 13 19 17 19 21 21 25 25 32 34 35 40 41 39 41 40 44 45 43 44 41 41 41 39 35 34 30
3 2 7 18 6 12 10 11 4 1 6 6 5 4 6 10 12 14 9 17 19 17 21 22 22 27 35 38 41 41 42 41 44 42 42 43 48 48 47 44 42 42 38 34
6 3 3 8 11 16 4 5 3 6 6 6 1 6 8 10 15 19 19 17 17 17 19 21 21 30 36 36 35 40 40 39 40 41 41 40 40 41 46 45 45 43 41 36
2 1 6 7 2 14 20 14 7 8 7 5 4 8 4 10 11 11 10 13 9 12 17 20 21 23 28 33 33 36 36 38 42 42 41 43 44 43 43 46 47 44 42 39
5 2 2 4 8 3 5 10 7 4 2 18 7 6 8 6 7 9 10 10 9 9 9 14 14 16 18 30 33 34 37 42 40 39 38 38 39 40 43 46 46 46 44 42
2 1 3 3 3 3 6 8 9 15 11 13 20 3 4 8 10 10 10 10 9 8 8 12 13 16 18 28 33 34 37 38 36 38 38 40 42 44 46 48 46 47 47 45
3 0 2 4 11 8 12 16 14 20 21 13 10 15 10 9 10 15 13 7 6 9 8 10 13 14 15 21 29 33 34 34 36 37 37 42 42 43 43 42 42 43 45 46
5 3 2 4 10 14 13 14 17 14 12 17 12 9 9 13 9 7 10 9 9 10 10 9 9 10 10 18 26 32 33 37 41 40 43 41 40 40 41 40 41 44 44 44
3 2 2 4 6 9 12 13 13 10 10 12 17 11 7 9 10 13 13 10 11 12 12 11 12 12 12 21 29 30 35 35 38 39 39 38 39 40 41 38 38 43 43 38
4 2 2 4 4 8 7 3 10 20 18 14 9 13 17 16 14 16 17 18 14 11 11 11 11 12 19 26 27 31 28 34 36 37 36 33 35 38 37 39 42 42 39 41
17 5 3 4 6 10 18 4 4 4 13 13 11 10 13 18 10 8 9 11 15 13 14 15 19 21 24 26 33 29 28 30 30 30 32 34 38 38 35 37 41 40 36 37
13 13 6 4 6 7 3 3 5 5 5 7 10 11 14 6 7 9 8 8 13 11 7 10 19 19 18 27 25 29 27 28 29 33 39 40 41 40 40 42 39 37 36 36
5 7 15 13 5 6 4 6 3 8 6 14 8 11 12 10 12 14 5 8 9 10 12 17 14 15 27 30 29 24 24 26 42 39 35 35 35 37 38 34 32 33 31 29
6 6 5 6 6 15 1 5 4 3 6 13 17 15 15 15 17 9 7 5 6 8 5 8 5 3 6 13 22 18 21 41 25 27 30 31 34 35 34 35 32 34 35 36
4 7 4 9 6 5 5 5 5 5 7 10 16 20 16 18 15 8 4 6 5 5 5 6 8 10 11 6 9 5 1 6 9 17 22 19 18 22 25 28 25 20 22 24
5 3 7 6 8 7 3 5 4 8 6 15 18 15 10 6 8 9 8 7 9 7 9 13 14 12 10 15 9 5 10 8 9 17 19 17 15 14 15 15 15 15 16 17
7 6 5 8 20 12 5 3 6 6 12 16 16 6 9 9 13 16 13 11 11 10 11 15 14 10 12 15 16 14 8 3 4 6 10 13 17 20 17 12 11 13 9 16
7 8 5 9 9 7 3 4 8 5 9 13 13 8 13 11 15 16 14 11 11 12 14 14 15 14 12 15 16 15 11 9 14 14 12 15 20 21 22 24 29 29 30 37
Wind_Direction
181 170 212 205 210 180 206 218 197 210 215 172 215 220 191 177 184 183 181 190 200 207 203 205 206 204 200 204 207 210 209 212 212 213 217 223 226 227 227 229 225 224 231 230
119 219 199 180 197 181 218 221 257 288 257 173 190 223 184 184 192 188 185 193 203 203 193 200 201 203 201 200 207 208 212 213 213 213 213 216 222 227 226 228 227 228 229 230
198 218 171 192 181 200 206 212 202 221 349 87 92 308 158 212 212 189 203 205 208 204 202 202 198 200 203 205 204 207 212 211 214 215 213 214 222 225 225 230 228 224 228 225
215 223 186 174 202 177 215 166 170 218 152 234 155 255 229 196 202 200 201 202 207 207 211 208 208 208 202 208 209 210 209 209 215 215 211 211 210 214 227 233 234 229 228 226
208 186 184 205 198 168 209 161 181 178 188 291 216 70 261 175 205 211 207 211 208 207 207 204 205 212 213 206 205 207 209 211 213 214 212 214 209 220 231 235 229 223 225 227
188 183 181 185 172 177 156 103 50 54 105 245 218 182 228 189 208 213 215 220 213 208 209 211 208 212 215 210 208 207 204 207 210 214 214 213 212 216 223 225 221 223 226 230
188 214 206 153 168 160 155 114 305 236 186 240 186 203 233 213 205 206 206 218 215 210 209 212 211 203 205 203 203 202 203 205 207 211 214 213 217 218 223 225 221 224 225 228
174 216 205 185 190 191 191 166 155 197 211 240 130 227 235 200 217 220 214 220 218 214 212 212 211 208 203 200 203 200 200 205 204 208 211 214 216 218 224 226 226 227 228 231
168 238 211 171 168 165 204 187 180 83 260 35 226 299 308 199 205 204 220 220 221 215 213 214 213 209 206 203 201 201 201 204 203 206 208 209 214 215 222 226 227 229 229 231
227 210 205 209 134 190 156 158 156 109 197 233 278 254 223 194 208 214 207 210 222 210 209 214 213 210 207 204 203 202 203 204 204 206 205 209 213 217 223 226 227 227 231 231
10 120 315 117 199 188 130 175 166 164 160 204 296 253 209 210 219 210 223 218 214 208 208 210 210 207 206 206 199 202 201 202 201 203 205 205 210 213 219 223 230 231 231 231
13 85 224 199 243 215 207 199 154 182 223 238 168 242 237 232 203 204 229 234 211 203 206 209 206 202 199 202 199 200 200 202 204 203 202 204 207 209 213 220 228 231 231 232
328 342 81 26 297 129 194 208 172 138 92 223 189 249 222 222 235 233 225 245 244 228 201 208 204 198 199 197 197 196 198 204 203 201 202 204 204 204 211 217 222 229 230 230
33 72 105 246 289 315 300 229 201 201 218 227 236 264 236 241 248 252 240 232 235 229 223 204 199 200 198 195 196 194 200 203 200 200 200 201 204 205 210 216 218 222 228 228
79 327 310 258 282 262 250 264 268 225 226 220 226 227 227 235 228 242 231 244 236 241 220 204 199 197 197 195 194 197 199 195 195 197 200 206 205 208 210 210 212 216 222 225
348 251 60 278 269 278 272 260 254 250 262 243 235 245 208 215 220 252 232 217 228 238 228 215 209 202 193 191 193 194 194 194 191 195 204 205 204 205 209 209 209 214 217 219
311 211 114 258 295 314 285 249 251 243 220 221 229 226 228 242 224 225 243 230 217 227 228 208 206 201 202 197 195 194 197 194 195 200 207 203 201 203 207 207 206 211 212 210
208 198 174 244 323 249 249 310 268 243 226 222 229 212 214 229 234 224 220 224 228 220 226 225 220 210 204 201 198 205 196 194 197 204 204 202 202 207 204 203 208 212 211 209
200 175 251 209 219 295 301 1 14 14 259 225 191 224 220 225 245 265 213 214 221 218 218 219 219 214 212 201 202 193 192 197 199 204 202 202 201 205 204 206 209 211 209 210
190 205 215 164 207 229 180 256 254 166 254 32 6 263 219 173 218 250 232 204 224 221 206 212 225 232 207 211 196 187 191 189 198 201 205 204 203 203 204 208 210 209 208 212
148 187 216 239 253 282 246 258 278 189 280 317 313 280 288 236 214 219 214 218 221 213 214 229 196 203 216 214 198 187 187 193 210 207 205 204 204 205 208 209 207 205 210 212
175 174 189 222 238 235 45 297 171 306 296 302 303 290 274 267 268 234 222 244 238 237 225 201 192 96 92 202 187 186 186 213 211 207 202 202 203 204 205 202 202 203 199 205
234 193 203 198 219 248 146 214 257 256 282 305 305 294 267 263 250 236 150 89 75 69 67 86 111 81 58 120 181 160 225 243 194 210 212 212 218 217 209 202 204 213 209 207
272 339 252 318 239 222 204 278 228 250 17 321 304 296 270 210 126 97 80 65 74 55 62 75 78 72 54 52 80 198 211 198 175 199 208 206 202 202 209 214 212 201 204 215
241 329 301 286 289 287 202 258 271 327 23 321 323 359 36 103 105 106 97 91 87 84 76 74 76 73 60 54 52 48 58 111 180 171 179 171 169 167 152 147 171 181 200 202
208 226 213 248 249 259 229 280 296 29 10 326 325 32 46 63 87 93 88 86 86 79 82 79 76 75 69 63 60 53 63 97 116 104 114 137 139 136 128 111 97 104 111 96